Location: Noordwijk
(52.2400°N, 4.4500°E)
Time: 21:44:16
(UTC+00:00)

FO-29 - Pass Details

Date: 03 December 2022
Orbit: 799 x 1322 km, 98.5° (Epoch: 01 February)

Event Time Altitude Azimuth Distance (km) Brightness Sun altitude
Rises 18:23:21 0° 211° (SSW) 4,315 13.3 -25.1°
Reaches altitude 10° 18:26:51 10° 225° (SW) 3,343 12.9 -25.6°
Maximum altitude 18:32:44 23° 274° (W) 2,462 12.3 -26.5°
Drops below altitude 10° 18:38:27 10° 324° (NW) 3,220 12.6 -27.4°
Sets 18:41:47 0° 339° (NNW) 4,119 13.0 -27.9°
